Temperature
23 22 21 22 24 25 27 29 30 29 29 29 29 28 27 26 25 23 22 22 21 21 20 20 20 20 20 19 19 19 19 19 19 19 19 19 19 19 19 19 19 19 19 19 19 18 18 18 18
22 22 22 24 25 26 27 29 29 29 29 29 28 28 27 26 24 23 22 22 21 21 20 20 20 20 20 19 19 19 19 19 19 19 19 19 19 19 19 19 19 19 19 19 18 18 18 18 18
23 23 24 26 27 28 28 29 29 29 29 28 28 27 26 25 24 23 22 22 21 21 21 20 20 20 20 19 19 19 19 19 19 19 19 19 19 19 19 19 18 19 19 19 18 18 18 18 18
23 24 26 27 28 29 29 30 30 30 29 28 28 26 25 24 23 23 22 22 22 21 20 20 20 20 20 20 20 19 19 19 19 19 19 19 19 19 19 18 19 19 19 19 18 18 18 18 18
24 25 27 28 29 30 30 30 30 30 29 28 27 26 24 23 23 23 22 22 22 21 21 21 20 20 20 20 20 20 19 19 19 19 19 19 19 19 19 19 19 19 19 19 18 19 19 18 18
25 26 27 28 29 30 30 30 30 30 29 28 27 26 24 23 23 23 23 22 22 21 21 21 20 20 20 20 20 20 20 19 19 19 19 19 19 19 19 19 19 19 19 19 19 19 19 18 19
26 26 28 29 30 30 30 30 30 29 29 28 27 26 24 24 23 23 22 22 22 22 21 21 20 20 20 20 20 20 20 19 19 19 19 19 19 19 19 19 19 19 19 19 19 19 19 19 19
28 27 28 29 30 29 30 30 30 29 29 28 27 26 25 24 23 23 22 22 22 22 21 21 20 20 20 20 20 20 20 19 19 19 19 19 19 19 19 19 19 19 19 19 19 19 19 19 19
29 28 28 30 30 30 31 30 30 29 28 28 27 26 24 24 23 23 22 22 22 21 21 21 20 20 20 20 20 20 20 20 19 19 19 19 19 19 19 19 19 19 19 19 19 18 18 19 19
30 29 30 31 31 31 31 30 30 29 28 27 26 25 24 24 23 23 22 22 21 21 21 20 20 20 20 20 20 20 20 19 19 19 19 19 19 19 19 19 19 19 19 19 19 18 18 18 18
30 30 31 32 31 31 31 30 30 29 28 27 26 25 24 24 23 23 22 22 21 21 21 20 20 20 20 20 20 20 20 19 19 19 19 19 19 19 19 19 18 19 19 18 18 18 18 18 18
31 31 31 31 31 31 31 30 30 29 28 27 26 25 25 24 23 23 22 22 21 21 20 20 20 19 20 20 20 20 20 19 19 19 19 19 19 19 19 18 18 18 18 18 18 18 18 18 18
31 31 31 31 31 31 30 30 29 28 28 27 26 25 25 24 23 23 22 21 21 20 20 20 19 19 19 20 20 20 20 20 19 19 19 19 19 19 19 19 18 18 18 18 18 18 18 18 18
31 31 31 31 31 31 30 29 29 28 28 27 26 26 25 24 23 23 22 21 21 20 20 20 19 19 19 19 19 19 19 19 19 19 19 19 19 19 19 19 19 19 18 18 18 18 18 18 18
31 31 32 32 32 31 30 29 29 28 28 27 27 26 25 24 24 23 22 21 21 20 20 20 19 19 19 19 19 19 19 19 19 19 19 19 19 19 19 19 19 19 18 18 18 18 18 18 18
32 31 30 32 32 31 31 28 29 28 29 28 27 26 25 24 24 23 22 21 21 20 20 20 19 19 19 19 19 19 19 19 19 19 19 19 19 19 19 19 19 19 19 18 18 18 18 18 18
32 31 31 31 33 32 31 29 29 29 29 28 28 27 26 25 24 23 22 21 21 20 20 19 19 19 19 19 19 19 19 19 19 19 19 19 19 19 19 19 18 18 18 18 18 18 18 18 18
31 31 31 31 32 32 31 30 30 30 30 29 28 27 26 25 24 23 23 22 21 20 20 20 19 19 19 19 19 19 19 19 19 19 19 19 19 19 19 18 18 18 18 18 18 18 18 18 18
32 32 31 32 33 32 31 31 30 30 30 29 29 28 27 25 24 23 23 22 21 20 20 20 19 19 19 19 19 19 19 19 19 19 19 19 18 18 18 18 18 18 18 18 18 18 18 18 18
33 32 32 32 33 33 31 31 31 31 30 30 29 28 27 26 25 24 23 22 21 20 20 20 19 19 19 19 19 19 19 19 19 19 19 19 18 18 18 18 18 18 18 18 18 18 18 18 18
33 32 32 32 32 32 31 30 31 31 31 30 29 29 28 26 25 24 23 23 22 21 20 20 20 19 19 19 19 19 19 19 19 19 19 18 18 18 19 18 18 18 18 18 18 18 18 18 18
32 33 33 33 32 31 31 29 29 30 30 30 30 29 28 27 26 25 24 23 22 21 21 20 20 20 19 19 19 19 19 19 19 19 19 19 18 18 18 18 18 18 18 18 18 18 18 18 18
33 34 33 32 31 30 30 30 29 30 30 30 30 30 29 28 26 25 24 23 23 22 21 20 20 20 20 20 19 19 19 19 19 19 19 19 19 18 18 18 18 18 18 18 18 18 18 18 18
34 34 33 32 31 29 30 30 29 29 30 31 31 30 29 28 27 26 25 24 23 22 21 21 20 20 20 20 19 19 19 19 19 19 19 19 19 19 18 18 18 18 18 18 18 18 18 18 18
33 32 31 30 29 29 31 31 30 31 31 32 31 30 29 28 27 26 25 24 23 23 22 21 20 20 20 20 20 19 19 19 19 19 19 19 19 19 18 18 18 18 18 18 18 18 18 18 18
33 32 31 29 29 30 31 30 31 32 32 32 31 30 29 28 27 26 25 24 23 23 22 21 21 20 20 20 20 20 20 19 19 19 19 19 19 19 18 18 18 18 18 18 18 18 18 18 18
32 32 33 32 31 30 30 30 31 32 32 32 31 30 29 28 27 27 26 25 24 23 22 22 21 20 20 20 20 20 20 19 19 19 19 19 19 19 19 18 18 18 18 18 18 18 18 18 18
34 33 33 31 29 29 29 29 29 31 31 31 31 29 29 28 28 27 26 25 24 23 23 22 21 21 20 20 20 20 20 19 19 19 19 19 19 19 19 18 18 18 18 18 18 18 18 18 18
33 33 32 32 31 30 29 28 30 30 31 31 30 29 28 28 27 26 26 25 24 24 23 22 21 21 20 20 20 20 19 19 19 19 19 19 19 19 18 18 18 18 18 18 18 18 18 18 17
33 33 33 31 30 30 30 29 31 31 31 31 30 29 28 27 27 26 25 25 24 24 23 22 22 21 21 20 20 20 19 19 19 19 19 18 18 18 18 18 18 18 18 18 18 17 17 17 17
Wind_Speed
10 11 9 5 3 1 8 12 13 12 12 12 13 13 16 15 10 9 6 10 12 14 13 13 13 12 11 10 10 11 10 10 10 11 11 11 11 10 10 11 11 12 12 12 11 10 10 10 10
9 11 7 3 1 5 10 11 12 12 10 10 13 15 15 15 12 9 8 9 11 13 13 13 14 12 11 10 10 11 10 10 10 11 11 10 10 10 11 11 11 11 11 11 11 10 9 9 10
10 11 5 3 3 9 11 11 11 11 9 10 12 13 11 10 10 7 8 9 11 12 14 15 14 13 11 10 9 10 10 10 10 11 11 10 10 10 10 10 11 11 11 11 11 10 9 9 9
6 4 3 0 9 13 11 10 10 11 11 11 12 10 11 10 9 9 10 10 11 13 15 15 14 13 11 10 9 9 10 10 10 10 10 10 10 10 10 10 10 11 11 10 10 10 9 9 8
5 3 1 5 11 12 11 10 9 11 11 13 14 14 12 11 11 11 10 10 11 12 15 15 14 13 12 10 9 8 8 9 9 9 9 10 10 10 10 9 9 10 10 9 9 9 9 8 8
3 2 1 7 12 12 11 10 11 12 12 12 13 13 10 9 10 10 10 10 11 12 14 15 15 13 12 10 9 8 7 7 8 8 8 8 9 9 9 8 9 9 9 9 9 8 8 7 7
3 2 3 8 11 11 11 10 11 11 11 11 11 12 9 10 9 10 10 10 10 10 12 12 13 12 12 10 10 8 7 7 7 7 7 7 8 9 8 8 9 9 8 8 7 7 7 7 6
1 1 4 7 10 11 10 10 11 11 11 9 9 9 9 9 10 10 10 10 9 9 9 9 10 10 10 10 10 9 7 7 7 7 7 7 8 9 9 9 8 8 7 7 6 6 6 6 5
2 2 4 7 10 9 9 10 12 11 12 12 13 14 12 12 11 10 9 9 9 8 7 7 8 7 6 8 10 10 9 7 7 7 7 7 7 7 8 8 8 8 7 7 6 5 6 5 6
2 4 7 9 10 9 8 9 9 10 12 13 13 13 13 11 10 9 9 9 9 7 7 6 6 5 4 5 6 6 6 7 6 6 7 5 4 5 7 10 10 8 7 6 6 5 5 5 4
6 6 8 9 9 9 9 9 9 10 10 12 13 12 11 11 10 9 9 8 8 7 7 7 7 5 4 3 3 2 3 5 5 5 5 5 4 4 6 6 7 7 7 5 6 6 4 4 3
6 6 6 7 8 9 9 8 9 12 12 12 13 11 11 10 9 9 8 8 8 7 7 7 6 4 4 3 1 1 2 3 4 5 4 4 2 2 2 2 4 5 4 4 3 3 3 2 2
7 6 6 6 7 8 9 9 9 12 13 13 12 10 10 9 9 8 8 8 7 6 6 7 6 4 3 2 1 1 2 3 4 4 4 3 2 2 2 2 2 1 3 3 2 2 2 2 1
5 4 4 5 6 7 10 8 7 10 12 12 11 10 9 10 10 9 8 8 7 6 6 6 6 4 3 1 1 1 2 3 3 3 4 3 2 2 2 2 1 1 1 3 2 2 2 2 1
2 3 3 4 5 6 9 8 7 7 11 11 10 10 9 9 10 9 8 7 6 6 5 4 5 4 3 2 1 1 1 2 3 4 4 3 3 1 1 2 1 1 2 2 2 2 2 3 2
4 2 2 4 5 4 3 7 7 7 10 10 10 10 9 9 9 8 8 7 6 5 4 2 4 5 3 1 1 1 2 2 3 4 4 3 2 1 1 1 1 1 1 1 2 2 2 2 2
5 2 3 4 4 4 3 6 7 7 9 9 9 10 10 10 8 8 8 7 7 5 4 3 4 4 2 2 1 1 1 2 2 3 3 3 2 2 1 1 2 1 1 1 2 3 2 2 1
2 2 2 2 2 4 5 6 8 8 8 9 9 9 9 10 8 9 8 8 7 6 4 4 3 3 2 2 0 0 1 1 2 3 2 3 2 2 1 1 2 1 1 2 2 2 1 1 0
3 1 2 2 2 4 5 7 9 8 8 9 9 9 9 10 10 9 8 8 8 6 5 4 3 3 1 1 1 1 1 1 2 3 3 3 2 3 2 1 2 1 1 2 1 1 1 1 1
4 0 2 2 2 3 5 7 9 9 8 8 8 9 10 10 10 10 9 8 8 7 5 4 3 3 2 1 1 1 1 1 2 2 4 4 2 2 3 1 1 1 1 1 1 1 0 1 1
5 3 1 1 2 3 4 5 7 10 9 8 8 9 10 11 12 11 10 8 8 7 6 5 4 3 2 1 1 1 1 0 2 3 3 2 2 2 2 2 1 0 1 2 1 1 1 1 1
6 3 4 5 4 3 2 2 5 8 7 7 8 9 10 11 11 11 10 9 9 8 8 6 5 4 3 2 1 1 2 1 1 2 2 2 3 2 2 2 1 0 1 1 1 1 1 1 1
6 5 5 4 4 3 3 2 4 6 7 7 7 9 9 10 11 11 11 10 9 9 8 8 6 5 3 3 2 2 1 1 1 2 3 2 2 3 2 2 1 1 1 1 0 1 1 1 1
7 8 6 5 6 5 4 3 4 4 5 7 9 9 9 9 10 10 10 9 8 8 8 8 7 6 4 4 3 3 2 1 1 1 2 2 2 2 2 3 2 2 1 1 1 1 1 1 1
6 7 5 4 4 5 5 2 4 7 6 7 9 9 9 9 9 10 10 10 8 8 8 8 8 6 5 4 3 3 3 3 3 2 2 2 2 2 2 2 2 2 2 2 2 2 1 1 1
7 9 7 5 4 3 1 3 5 9 7 8 9 9 8 9 8 8 9 9 9 8 7 7 7 6 6 5 4 3 4 3 3 3 3 2 2 3 3 3 2 2 1 1 1 1 2 2 2
8 9 9 8 6 3 1 3 5 8 7 8 9 9 8 7 8 8 9 9 9 9 7 7 7 6 5 5 5 4 4 4 3 3 3 2 2 3 3 3 2 1 0 0 0 1 1 0 0
9 8 6 5 4 4 2 2 2 5 6 8 8 7 6 6 6 7 8 9 9 9 8 8 8 7 5 5 4 5 4 4 3 3 2 2 2 2 3 2 2 2 1 1 1 1 1 1 1
7 9 7 5 5 6 2 1 4 4 5 6 8 6 7 6 5 5 6 7 8 8 8 7 7 7 6 5 4 2 3 4 3 3 3 2 2 3 3 3 2 2 2 1 1 1 1 2 1
8 10 9 6 5 6 5 1 4 4 5 6 8 7 6 6 5 6 5 5 5 5 6 6 6 6 6 5 4 3 2 3 4 3 3 3 3 3 4 3 3 3 2 1 1 2 1 1 1
Wind_Direction
198 209 214 237 245 217 60 62 62 63 61 53 53 63 61 54 62 84 89 90 97 107 113 111 105 99 98 98 95 94 93 92 94 94 92 88 88 88 90 100 105 109 114 116 117 118 119 121 124
224 221 222 246 270 74 64 61 65 63 66 69 64 65 67 66 74 91 90 93 102 110 112 111 111 105 103 99 97 97 94 91 93 94 95 91 90 90 92 100 106 110 113 117 120 123 125 126 128
250 253 254 231 62 66 68 63 72 75 65 71 73 61 61 69 77 90 103 107 102 106 111 114 117 116 113 108 102 100 97 94 95 97 97 95 94 95 95 102 110 113 113 116 120 125 125 130 134
247 248 242 155 71 68 74 75 77 80 70 69 78 74 69 66 79 99 108 109 112 116 116 120 124 123 121 118 111 106 106 105 104 102 99 96 94 98 96 99 108 115 115 117 121 126 126 132 140
244 267 237 84 76 74 73 74 78 76 76 76 81 87 81 75 87 98 105 109 112 113 116 120 128 128 127 125 119 113 112 114 114 111 107 103 100 100 100 101 106 114 120 122 125 128 130 135 143
267 283 31 85 86 81 75 74 76 76 80 86 88 92 90 94 92 97 98 97 105 112 117 124 133 134 132 131 127 124 122 122 123 121 115 113 110 105 106 109 112 114 118 124 129 130 132 139 146
250 315 27 78 87 80 74 74 78 81 78 84 94 94 102 94 92 90 91 93 94 103 117 130 137 138 138 136 133 134 138 136 137 136 130 127 125 117 118 120 121 122 125 128 131 135 142 144 155
206 39 38 68 84 82 81 78 79 81 80 85 91 94 106 102 102 98 95 91 90 90 103 119 130 132 141 145 145 149 150 144 150 154 147 143 139 137 135 132 132 133 134 137 140 144 154 158 167
238 86 55 65 82 86 86 87 87 88 87 76 76 94 106 111 106 103 96 91 81 81 84 95 107 123 131 137 144 159 160 152 153 156 155 154 155 148 148 139 142 143 144 147 154 159 160 167 181
65 59 57 65 85 94 89 88 93 94 89 90 90 98 108 110 105 102 98 94 91 87 80 74 76 83 90 109 135 149 147 149 153 148 151 155 141 133 133 147 153 156 160 160 168 173 174 185 186
63 55 61 71 83 90 89 82 84 96 93 100 106 112 112 108 104 98 96 96 93 90 83 81 69 63 64 76 122 125 135 145 145 135 135 128 127 136 136 148 159 164 170 175 165 176 190 187 181
77 64 66 76 84 88 83 81 83 84 94 107 113 116 112 109 106 104 101 97 96 89 85 79 75 60 46 42 58 125 133 144 129 136 139 134 136 131 137 149 153 164 167 161 157 164 173 156 135
77 80 81 80 88 90 90 79 84 94 103 107 112 112 115 114 108 103 102 99 99 92 89 90 89 79 70 40 338 90 99 109 111 121 121 128 124 120 123 127 130 144 147 143 142 157 146 122 117
92 100 97 101 108 104 93 78 83 106 114 116 120 120 120 116 115 111 105 104 104 97 87 93 97 86 78 61 359 22 82 100 102 105 103 107 105 90 119 120 108 111 132 133 134 138 124 124 112
122 144 132 119 118 113 104 89 103 127 121 123 126 125 121 116 115 114 112 114 113 104 94 103 113 99 79 56 2 89 90 92 100 100 97 99 105 98 100 110 132 135 141 131 132 117 127 137 137
207 199 125 124 119 129 104 106 123 144 134 134 134 132 129 121 124 123 120 117 111 106 99 95 105 110 115 97 11 34 52 78 97 111 114 119 107 110 82 107 119 117 142 142 141 135 130 117 124
218 168 138 127 113 124 116 120 149 154 138 139 141 141 143 140 135 130 129 126 117 112 113 104 86 107 118 111 122 113 85 73 95 111 121 129 119 96 76 66 75 106 86 69 99 101 112 120 133
294 111 118 108 138 124 121 131 153 156 146 146 149 148 151 149 147 140 140 134 127 123 119 119 106 97 108 112 79 26 108 121 121 120 127 123 127 110 90 103 87 78 75 64 62 79 96 117 157
298 66 76 111 169 147 141 146 152 160 158 154 156 156 157 154 151 147 147 144 139 133 129 124 123 110 93 84 130 160 142 159 130 124 129 125 125 120 117 86 111 116 99 99 93 92 132 145 157
297 347 142 149 190 160 156 148 149 159 165 159 159 161 159 155 156 154 157 155 147 139 138 141 140 129 126 128 230 189 143 165 130 112 117 120 128 129 135 122 132 130 127 110 112 120 146 211 153
283 305 306 221 214 201 166 153 154 161 156 160 165 165 162 162 163 163 166 164 156 154 155 159 147 146 147 165 192 160 154 141 93 116 122 127 134 132 108 114 102 41 112 126 149 156 215 252 220
270 264 248 250 245 230 186 163 172 163 156 168 171 168 167 166 164 165 168 170 167 162 160 151 148 151 157 187 207 177 147 141 139 131 135 147 151 144 136 137 130 106 69 126 203 152 273 258 248
274 272 260 279 286 270 209 196 163 158 163 177 178 169 164 163 161 165 169 171 172 167 164 157 151 158 167 191 195 199 161 177 128 120 142 151 153 159 157 157 147 142 177 151 102 46 321 295 300
284 281 262 272 269 252 215 189 151 150 185 175 166 162 163 162 160 163 164 162 168 166 161 160 156 165 175 189 192 190 191 190 167 144 157 161 149 149 146 156 158 176 182 180 201 231 256 271 309
283 281 271 266 238 240 208 161 135 145 161 148 147 154 157 161 162 162 162 164 164 165 166 158 155 169 177 184 194 189 200 196 191 199 194 179 155 143 154 159 171 190 185 202 211 210 229 269 279
263 266 275 286 280 268 295 103 119 130 129 130 136 140 146 152 153 159 159 159 163 167 162 154 154 166 177 184 191 190 198 207 194 201 207 191 160 153 149 157 172 182 201 221 211 211 207 224 248
260 269 278 281 291 297 330 118 120 117 129 132 123 128 141 146 150 156 161 164 166 167 164 160 154 163 175 184 186 192 198 207 207 186 205 185 139 148 148 160 164 166 162 269 202 167 237 211 242
252 280 289 286 303 277 204 189 158 140 136 127 121 124 125 134 144 149 158 163 165 168 165 162 156 164 177 185 194 195 193 196 203 191 194 179 143 126 138 143 156 149 144 185 161 173 184 170 212
241 261 274 288 283 292 300 112 146 147 129 124 120 118 122 131 129 122 133 149 157 161 162 160 156 163 174 183 189 194 174 183 192 191 186 172 148 149 154 156 169 162 171 177 179 185 199 194 206
248 258 260 266 272 278 285 177 122 138 132 119 114 119 118 113 112 117 117 126 144 161 162 161 163 170 174 176 173 171 175 175 184 183 179 161 154 166 164 170 179 186 175 188 198 213 218 206 186
Height
1484 1484 1485 1489 1488 1487 1482 1473 1469 1471 1472 1475 1475 1476 1481 1485 1491 1502 1502 1500 1501 1500 1501 1501 1501 1502 1503 1503 1504 1504 1505 1505 1505 1506 1507 1507 1507 1508 1507 1508 1509 1510 1511 1513 1515 1517 1518 1520 1522
1484 1485 1489 1488 1486 1490 1485 1474 1474 1474 1476 1477 1478 1481 1484 1489 1494 1499 1501 1502 1502 1502 1502 1503 1503 1504 1504 1505 1506 1506 1507 1507 1507 1508 1508 1509 1509 1509 1509 1510 1511 1512 1513 1514 1516 1518 1520 1521 1523
1484 1487 1488 1483 1482 1484 1484 1475 1475 1476 1477 1479 1482 1486 1490 1495 1498 1500 1502 1503 1503 1503 1504 1504 1505 1506 1506 1507 1508 1509 1509 1509 1509 1510 1510 1510 1510 1510 1511 1512 1512 1514 1515 1516 1517 1519 1521 1522 1524
1487 1487 1485 1481 1481 1475 1475 1475 1475 1476 1479 1481 1484 1490 1495 1498 1500 1502 1502 1503 1504 1505 1505 1506 1506 1507 1508 1509 1510 1511 1511 1511 1511 1512 1512 1512 1512 1512 1513 1514 1514 1516 1517 1518 1519 1520 1522 1523 1525
1488 1487 1484 1482 1479 1475 1474 1475 1477 1478 1481 1484 1487 1493 1499 1502 1502 1503 1504 1504 1505 1506 1506 1507 1508 1509 1510 1511 1512 1512 1513 1513 1513 1514 1514 1514 1514 1515 1515 1516 1517 1517 1518 1519 1520 1521 1523 1524 1526
1488 1483 1487 1486 1480 1476 1476 1478 1479 1481 1483 1487 1490 1495 1502 1504 1504 1505 1505 1506 1507 1507 1508 1509 1510 1511 1512 1512 1513 1514 1514 1515 1515 1516 1516 1516 1516 1517 1518 1518 1519 1519 1520 1521 1522 1523 1524 1525 1527
1488 1485 1486 1480 1480 1479 1478 1479 1481 1484 1486 1489 1492 1496 1503 1505 1506 1506 1507 1508 1509 1510 1510 1510 1512 1512 1513 1514 1515 1515 1516 1517 1517 1518 1518 1518 1518 1519 1520 1520 1521 1521 1522 1523 1524 1525 1526 1527 1529
1484 1485 1485 1480 1481 1482 1480 1481 1483 1485 1489 1492 1493 1497 1503 1507 1507 1508 1509 1509 1510 1512 1513 1513 1513 1514 1515 1515 1516 1517 1517 1518 1518 1519 1520 1520 1520 1521 1521 1522 1522 1523 1524 1524 1525 1526 1527 1528 1530
1481 1485 1488 1481 1481 1482 1481 1482 1485 1488 1490 1493 1496 1500 1504 1507 1508 1509 1510 1512 1513 1514 1515 1515 1516 1516 1517 1517 1518 1518 1519 1519 1520 1521 1521 1522 1522 1522 1523 1523 1524 1525 1525 1526 1527 1528 1529 1530 1531
1479 1484 1480 1475 1477 1480 1481 1483 1486 1489 1492 1496 1500 1504 1507 1508 1509 1510 1512 1513 1515 1516 1516 1517 1517 1518 1519 1519 1519 1520 1521 1521 1521 1522 1522 1523 1523 1524 1525 1525 1525 1526 1527 1527 1528 1529 1530 1531 1532
1480 1481 1477 1477 1479 1481 1482 1484 1487 1489 1494 1498 1502 1505 1508 1509 1511 1512 1514 1515 1516 1517 1518 1518 1518 1519 1519 1520 1520 1521 1522 1522 1522 1523 1523 1524 1524 1525 1525 1526 1526 1527 1528 1529 1529 1530 1531 1532 1534
1481 1480 1479 1480 1481 1482 1485 1487 1489 1492 1497 1500 1503 1506 1509 1511 1512 1514 1515 1516 1517 1518 1519 1519 1519 1519 1519 1520 1521 1522 1523 1523 1524 1523 1524 1524 1525 1526 1526 1527 1527 1528 1529 1530 1530 1531 1532 1533 1534
1482 1483 1482 1483 1483 1485 1487 1489 1491 1495 1499 1502 1505 1508 1510 1512 1514 1516 1517 1518 1518 1519 1520 1520 1519 1519 1520 1520 1521 1522 1523 1524 1524 1525 1525 1525 1526 1526 1527 1527 1528 1528 1529 1530 1531 1532 1533 1533 1534
1483 1483 1482 1483 1484 1485 1487 1491 1494 1497 1500 1503 1506 1508 1510 1513 1515 1517 1518 1519 1520 1520 1520 1520 1520 1520 1520 1520 1521 1522 1524 1524 1525 1525 1525 1526 1526 1527 1527 1528 1528 1529 1530 1531 1531 1532 1533 1533 1534
1483 1483 1482 1482 1482 1485 1488 1494 1496 1498 1501 1504 1506 1509 1512 1514 1516 1518 1519 1520 1520 1520 1520 1521 1521 1520 1521 1521 1522 1523 1524 1525 1525 1525 1525 1526 1527 1527 1528 1528 1529 1530 1530 1531 1532 1532 1533 1534 1534
1482 1484 1488 1482 1480 1484 1490 1501 1497 1498 1500 1503 1506 1509 1512 1515 1517 1518 1519 1520 1520 1521 1521 1521 1521 1521 1521 1522 1522 1523 1524 1524 1525 1525 1525 1526 1527 1528 1528 1528 1529 1530 1530 1531 1532 1532 1533 1534 1534
1482 1489 1489 1484 1479 1481 1487 1496 1495 1496 1498 1502 1505 1508 1512 1515 1517 1519 1519 1520 1521 1520 1521 1521 1521 1521 1522 1522 1523 1523 1523 1524 1525 1525 1526 1526 1527 1527 1528 1529 1529 1530 1531 1531 1532 1533 1533 1534 1535
1488 1486 1486 1486 1479 1480 1486 1491 1492 1494 1497 1500 1504 1507 1510 1513 1516 1518 1519 1520 1521 1521 1521 1521 1521 1521 1522 1522 1523 1523 1524 1524 1525 1525 1525 1526 1526 1527 1528 1528 1529 1530 1531 1532 1532 1532 1533 1534 1535
1477 1481 1487 1482 1476 1480 1485 1489 1490 1493 1495 1498 1501 1505 1509 1512 1515 1517 1519 1520 1521 1521 1521 1521 1521 1521 1521 1522 1522 1523 1524 1525 1525 1525 1525 1526 1526 1527 1528 1528 1529 1530 1531 1531 1532 1532 1533 1534 1535
1476 1483 1485 1480 1475 1478 1484 1486 1486 1491 1493 1496 1499 1503 1506 1510 1514 1516 1518 1520 1520 1521 1521 1521 1521 1521 1521 1522 1523 1523 1524 1525 1525 1525 1525 1526 1526 1527 1528 1528 1529 1530 1531 1531 1532 1533 1533 1534 1535
1479 1481 1483 1483 1478 1477 1484 1491 1487 1488 1491 1495 1497 1500 1504 1507 1511 1514 1517 1519 1520 1520 1520 1521 1521 1521 1521 1522 1523 1524 1524 1525 1525 1525 1526 1526 1527 1527 1528 1528 1529 1530 1530 1531 1532 1533 1533 1534 1535
1484 1474 1475 1477 1483 1489 1487 1507 1494 1487 1490 1492 1494 1498 1501 1505 1509 1512 1515 1517 1518 1519 1520 1520 1520 1521 1521 1522 1523 1523 1524 1524 1525 1525 1526 1526 1527 1527 1528 1528 1529 1529 1530 1531 1531 1532 1533 1534 1534
1474 1468 1471 1476 1484 1490 1488 1500 1498 1486 1490 1490 1491 1494 1498 1502 1506 1509 1512 1515 1517 1518 1519 1520 1520 1520 1521 1522 1522 1523 1524 1524 1525 1526 1526 1526 1526 1527 1527 1528 1529 1529 1530 1530 1531 1531 1532 1533 1534
1468 1469 1472 1477 1486 1503 1491 1496 1504 1491 1487 1485 1487 1492 1497 1500 1504 1507 1511 1513 1515 1517 1518 1519 1519 1520 1521 1521 1522 1522 1523 1524 1525 1525 1525 1526 1526 1526 1527 1528 1528 1528 1529 1530 1530 1531 1531 1532 1533
1471 1483 1498 1505 1507 1504 1481 1488 1494 1481 1478 1481 1485 1490 1494 1499 1502 1505 1508 1511 1514 1516 1517 1518 1518 1519 1520 1520 1521 1522 1522 1523 1524 1524 1525 1525 1525 1526 1526 1527 1527 1527 1528 1529 1529 1530 1530 1531 1532
1474 1480 1499 1513 1511 1498 1483 1494 1484 1475 1478 1480 1483 1488 1493 1497 1500 1503 1506 1509 1512 1514 1516 1517 1517 1518 1519 1520 1520 1521 1522 1523 1523 1524 1524 1525 1525 1525 1525 1526 1526 1527 1527 1528 1529 1529 1530 1530 1531
1478 1478 1471 1485 1490 1501 1498 1490 1482 1475 1478 1480 1484 1488 1492 1496 1499 1502 1505 1508 1510 1512 1514 1515 1516 1516 1517 1519 1519 1520 1521 1522 1522 1523 1523 1524 1524 1525 1525 1525 1525 1526 1526 1527 1528 1528 1528 1529 1530
1468 1469 1474 1486 1508 1515 1505 1501 1497 1483 1481 1480 1484 1488 1492 1495 1498 1501 1504 1506 1509 1511 1513 1514 1515 1515 1517 1517 1518 1519 1519 1520 1521 1522 1522 1523 1523 1523 1523 1524 1524 1525 1525 1526 1526 1527 1527 1528 1528
1471 1473 1475 1480 1487 1504 1513 1508 1481 1481 1480 1481 1484 1488 1491 1495 1498 1500 1503 1505 1508 1509 1511 1513 1514 1514 1515 1516 1517 1518 1518 1519 1520 1520 1520 1521 1521 1522 1522 1522 1523 1523 1524 1524 1525 1525 1526 1526 1527
1465 1470 1474 1489 1492 1490 1500 1501 1475 1477 1478 1481 1484 1489 1492 1495 1498 1500 1502 1505 1507 1508 1510 1511 1512 1513 1513 1514 1515 1516 1517 1517 1518 1518 1519 1519 1519 1520 1520 1521 1522 1522 1523 1523 1524 1524 1525 1525 1525